West Bend, WI

9:47 PM CDT on August 16, 2017 (GMT -0500)
West Bend Municipal

Weather History for KETB - January, 2014

Change the Weather History Date:

Wednesday, January 29, 2014

  Actual Average Record
Temperature  
Mean Temperature 11 °F -  
Max Temperature 26 °F 26 °F 59 °F (2013)
Min Temperature -2 °F 10 °F -25 °F (1966)
Degree Days  
Heating Degree Days 54    
Moisture  
Dew Point -4 °F    
Average Humidity 53    
Maximum Humidity 66    
Minimum Humidity 41    
Precipitation  
Precipitation 0.00 in - - ()
Sea Level Pressure  
Sea Level Pressure 30.00 in    
Wind  
Wind Speed 12 mph (SW)    
Max Wind Speed 20 mph    
Max Gust Speed 34 mph    
Visibility 10 miles    
Events      
Averages and records for this station are not official NWS values.
T = Trace of Precipitation, MM = Missing Value Source: NWS Daily Summary

Daily Weather History Graph

Daily Weather History Graph

Search for Another Location

Airport or City:

Trip Planner

Search our weather history database for the weather conditions in past years. The results will help you decide how hot, cold, wet, or windy it might be!

Date:

Astronomy

Jan. 29, 2014 Rise Set
Actual Time 7:11 AM CST 5:00 PM CST
Civil Twilight 6:41 AM CST 5:30 PM CST
Nautical Twilight 6:06 AM CST 6:05 PM CST
Astronomical Twilight 5:33 AM CST 6:38 PM CST
Moon 5:48 AM CST (1/29) 3:59 PM CST (1/29)
Length of Visible Light 10h 49m
Length of Day
9h 48m
Waning Crescent, 2% of the Moon is Illuminated
Jan 29
Waning Crescent
Jan 30
New
Feb 6
First Quarter
Feb 14
Full
Feb 22
Last Quarter

Hourly Weather History & Observations

Time (CST) Temp. Windchill Dew Point Humidity Pressure Visibility Wind Dir Wind Speed Gust Speed Precip Events Conditions
12:15 AM -2.2 °F -18.9 °F -13.0 °F 60% 30.09 in 10.0 mi WSW 10.4 mph 18.4 mph N/A   Clear
12:35 AM -2.2 °F -20.7 °F -13.0 °F 60% 30.08 in 10.0 mi WSW 12.7 mph 17.3 mph N/A   Clear
12:55 AM -0.4 °F -18.4 °F -13.0 °F 55% 30.07 in 10.0 mi WSW 12.7 mph 17.3 mph N/A   Clear
1:15 AM -0.4 °F -18.4 °F -13.0 °F 55% 30.06 in 10.0 mi WSW 12.7 mph 18.4 mph N/A   Clear
1:35 AM -0.4 °F -18.4 °F -13.0 °F 55% 30.07 in 10.0 mi WSW 12.7 mph 19.6 mph N/A   Clear
1:55 AM -0.4 °F -19.2 °F -13.0 °F 55% 30.07 in 10.0 mi WSW 13.8 mph 18.4 mph N/A   Clear
2:15 AM -0.4 °F -17.6 °F -11.2 °F 60% 30.06 in 10.0 mi WSW 11.5 mph 19.6 mph N/A   Clear
2:35 AM -0.4 °F -17.6 °F -11.2 °F 60% 30.05 in 10.0 mi WSW 11.5 mph 18.4 mph N/A   Clear
2:55 AM -0.4 °F -18.4 °F -11.2 °F 60% 30.05 in 10.0 mi WSW 12.7 mph 18.4 mph N/A   Clear
3:15 AM -0.4 °F -18.4 °F -11.2 °F 60% 30.04 in 10.0 mi WSW 12.7 mph 20.7 mph N/A   Clear
3:35 AM -0.4 °F -16.7 °F -11.2 °F 60% 30.03 in 10.0 mi WSW 10.4 mph 18.4 mph N/A   Clear
3:55 AM -0.4 °F -18.4 °F -11.2 °F 60% 30.03 in 10.0 mi WSW 12.7 mph 19.6 mph N/A   Clear
4:15 AM -0.4 °F -16.7 °F -13.0 °F 55% 30.03 in 10.0 mi WSW 10.4 mph 17.3 mph N/A   Clear
4:35 AM -0.4 °F -19.9 °F -13.0 °F 55% 30.03 in 10.0 mi WSW 15.0 mph - N/A   Clear
4:55 AM -2.2 °F -20.7 °F -11.2 °F 66% 30.04 in 10.0 mi WSW 12.7 mph 19.6 mph N/A   Clear
5:15 AM -2.2 °F -20.7 °F -11.2 °F 66% 30.04 in 10.0 mi WSW 12.7 mph 16.1 mph N/A   Clear
5:35 AM -2.2 °F -19.9 °F -11.2 °F 66% 30.04 in 10.0 mi WSW 11.5 mph - N/A   Clear
5:55 AM -2.2 °F -19.9 °F -13.0 °F 60% 30.04 in 10.0 mi WSW 11.5 mph 18.4 mph N/A   Clear
6:15 AM -0.4 °F -18.4 °F -11.2 °F 60% 30.04 in 10.0 mi WSW 12.7 mph 19.6 mph N/A   Clear
6:35 AM -0.4 °F -18.4 °F -11.2 °F 60% 30.03 in 10.0 mi WSW 12.7 mph 20.7 mph N/A   Clear
6:55 AM -0.4 °F -17.6 °F -11.2 °F 60% 30.04 in 10.0 mi WSW 11.5 mph 17.3 mph N/A   Clear
7:15 AM -0.4 °F -17.6 °F -11.2 °F 60% 30.04 in 10.0 mi WSW 11.5 mph 23.0 mph N/A   Clear
7:35 AM -0.4 °F -17.6 °F -9.4 °F 66% 30.04 in 10.0 mi WSW 11.5 mph 18.4 mph N/A   Clear
7:55 AM 1.4 °F -17.6 °F -9.4 °F 61% 30.04 in 10.0 mi West 15.0 mph 18.4 mph N/A   Clear
8:35 AM 1.4 °F -17.6 °F -9.4 °F 61% 30.05 in 10.0 mi West 15.0 mph 19.6 mph N/A   Clear
8:55 AM 3.2 °F -13.9 °F -9.4 °F 56% 30.05 in 10.0 mi WSW 12.7 mph 16.1 mph N/A   Clear
9:15 AM 5.0 °F -10.8 °F -9.4 °F 52% 30.06 in 10.0 mi WSW 11.5 mph 19.6 mph N/A   Clear
9:35 AM 5.0 °F -10.0 °F -7.6 °F 56% 30.06 in 10.0 mi WSW 10.4 mph 17.3 mph N/A   Clear
9:55 AM 6.8 °F -6.9 °F -7.6 °F 52% 30.07 in 10.0 mi West 9.2 mph - N/A   Clear
10:15 AM 8.6 °F -7.0 °F -7.6 °F 48% 30.06 in 10.0 mi West 12.7 mph 17.3 mph N/A   Clear
10:35 AM 10.4 °F -3.3 °F -5.8 °F 48% 30.07 in 10.0 mi WSW 10.4 mph - N/A   Clear
10:55 AM 10.4 °F -4.8 °F -5.8 °F 48% 30.06 in 10.0 mi SW 12.7 mph - N/A   Clear
11:15 AM 12.2 °F -1.0 °F -5.8 °F 45% 30.06 in 10.0 mi WSW 10.4 mph 19.6 mph N/A   Clear
11:35 AM 12.2 °F -3.1 °F -4.0 °F 48% 30.05 in 10.0 mi WSW 13.8 mph 18.4 mph N/A   Clear
11:55 AM 14.0 °F 1.2 °F -4.0 °F 45% 30.04 in 10.0 mi WSW 10.4 mph 21.9 mph N/A   Clear
12:15 PM 14.0 °F 2.0 °F -4.0 °F 45% 30.03 in 10.0 mi WSW 9.2 mph - N/A   Clear
12:35 PM 15.8 °F -0.2 °F -4.0 °F 41% 30.03 in 10.0 mi WSW 17.3 mph 24.2 mph N/A   Clear
12:55 PM 15.8 °F 2.7 °F -4.0 °F 41% 30.03 in 10.0 mi WSW 11.5 mph 20.7 mph N/A   Clear
1:15 PM 17.6 °F 6.4 °F -2.2 °F 42% 30.01 in 10.0 mi WSW 9.2 mph 21.9 mph N/A   Clear
1:35 PM 17.6 °F 4.3 °F -2.2 °F 42% 30.01 in 10.0 mi WSW 12.7 mph 19.6 mph N/A   Clear
1:55 PM 17.6 °F 5.0 °F -2.2 °F 42% 30.01 in 10.0 mi WSW 11.5 mph 20.7 mph N/A   Clear
2:15 PM 17.6 °F 3.2 °F -2.2 °F 42% 30.00 in 10.0 mi SW 15.0 mph 23.0 mph N/A   Clear
2:35 PM 17.6 °F 3.2 °F -2.2 °F 42% 30.00 in 10.0 mi SW 15.0 mph 18.4 mph N/A   Clear
2:55 PM 17.6 °F 4.3 °F -2.2 °F 42% 30.00 in 10.0 mi WSW 12.7 mph 21.9 mph N/A   Clear
3:15 PM 19.4 °F 6.0 °F -0.4 °F 42% 29.99 in 10.0 mi SW 13.8 mph 17.3 mph N/A   Clear
3:35 PM 19.4 °F 6.0 °F -0.4 °F 42% 29.98 in 10.0 mi SSW 13.8 mph - N/A   Clear
3:55 PM 17.6 °F 3.7 °F -0.4 °F 45% 29.97 in 10.0 mi SSW 13.8 mph 19.6 mph N/A   Clear
4:15 PM 17.6 °F 5.0 °F -0.4 °F 45% 29.97 in 10.0 mi SW 11.5 mph 19.6 mph N/A   Clear
4:35 PM 17.6 °F 6.4 °F -0.4 °F 45% 29.97 in 10.0 mi SSW 9.2 mph - N/A   Clear
4:55 PM 17.6 °F 3.7 °F -0.4 °F 45% 29.98 in 10.0 mi SSW 13.8 mph 18.4 mph N/A   Clear
5:15 PM 17.6 °F 5.7 °F -0.4 °F 45% 29.98 in 10.0 mi SSW 10.4 mph 16.1 mph N/A   Clear
5:35 PM 17.6 °F 5.0 °F -0.4 °F 45% 29.97 in 10.0 mi SSW 11.5 mph - N/A   Clear
5:55 PM 15.8 °F 6.1 °F -0.4 °F 49% 29.97 in 10.0 mi SSW 6.9 mph - N/A   Clear
6:15 PM 14.0 °F 5.1 °F -0.4 °F 53% 29.96 in 10.0 mi South 5.8 mph - N/A   Clear
6:35 PM 14.0 °F 2.0 °F 1.4 °F 57% 29.95 in 10.0 mi South 9.2 mph - N/A   Clear
6:55 PM 14.0 °F 2.0 °F 3.2 °F 62% 29.95 in 10.0 mi South 9.2 mph - N/A   Clear
7:15 PM 14.0 °F 2.0 °F 3.2 °F 62% 29.94 in 10.0 mi South 9.2 mph - N/A   Clear
7:35 PM 14.0 °F 2.9 °F 3.2 °F 62% 29.92 in 10.0 mi South 8.1 mph - N/A   Clear
7:55 PM 15.8 °F 2.7 °F 5.0 °F 62% 29.91 in 10.0 mi South 11.5 mph 17.3 mph N/A   Clear
8:15 PM 15.8 °F 2.1 °F 5.0 °F 62% 29.90 in 10.0 mi South 12.7 mph 16.1 mph N/A   Clear
8:35 PM 17.6 °F 5.7 °F 5.0 °F 58% 29.90 in 10.0 mi South 10.4 mph - N/A   Clear
8:55 PM 17.6 °F 5.7 °F 5.0 °F 58% 29.88 in 10.0 mi South 10.4 mph - N/A   Clear
9:15 PM 17.6 °F 5.0 °F 5.0 °F 58% 29.88 in 10.0 mi South 11.5 mph - N/A   Clear
9:35 PM 19.4 °F 7.2 °F 5.0 °F 54% 29.87 in 10.0 mi South 11.5 mph 16.1 mph N/A   Clear
9:55 PM 19.4 °F 7.9 °F 5.0 °F 54% 29.87 in 10.0 mi South 10.4 mph - N/A   Clear
10:15 PM 19.4 °F 8.6 °F 5.0 °F 54% 29.86 in 10.0 mi South 9.2 mph - N/A   Clear
10:35 PM 21.2 °F 9.5 °F 5.0 °F 50% 29.86 in 10.0 mi SSW 11.5 mph 18.4 mph N/A   Clear
10:55 PM 23.0 °F 11.1 °F 5.0 °F 46% 29.86 in 10.0 mi SSW 12.7 mph 23.0 mph N/A   Clear
11:15 PM 24.8 °F 12.9 °F 6.8 °F 46% 29.84 in 10.0 mi SSW 13.8 mph 24.2 mph N/A   Clear
11:35 PM 24.8 °F 11.1 °F 6.8 °F 46% 29.83 in 10.0 mi SSW 18.4 mph 25.3 mph N/A   Clear
11:55 PM 26.6 °F 13.1 °F 6.8 °F 43% 29.83 in 10.0 mi SSW 19.6 mph 34.5 mph N/A   Clear